TimeCST,TemperatureF,Dew PointF,Humidity,Sea Level PressureIn,VisibilityMPH,Wind Direction,Wind SpeedMPH,Gust SpeedMPH,PrecipitationIn,Events,Conditions,WindDirDegrees,DateUTC
12:15 AM,66.4,64.4,93,29.69,10.0,ESE,8.1,-,N/A,,Clear,110,2012-12-25 06:15:00
12:35 AM,66.6,64.4,93,29.68,10.0,SE,6.9,-,N/A,,Clear,130,2012-12-25 06:35:00
12:55 AM,67.3,64.8,92,29.67,10.0,SE,8.1,-,N/A,,Clear,130,2012-12-25 06:55:00
1:15 AM,67.6,64.8,90,29.67,10.0,SE,6.9,-,N/A,,Clear,130,2012-12-25 07:15:00
1:35 AM,67.6,64.9,91,29.67,10.0,SE,8.1,-,N/A,,Clear,140,2012-12-25 07:35:00
1:55 AM,67.6,64.9,91,29.67,10.0,SE,8.1,-,N/A,,Clear,140,2012-12-25 07:55:00
2:15 AM,67.3,64.8,92,29.68,10.0,Calm,Calm,-,N/A,,Clear,0,2012-12-25 08:15:00
2:35 AM,66.9,64.4,92,29.68,10.0,Calm,Calm,-,N/A,,Clear,0,2012-12-25 08:35:00
2:55 AM,65.8,63.9,93,29.69,7.0,Calm,Calm,-,N/A,,Scattered Clouds,0,2012-12-25 08:55:00
3:15 AM,64.8,63.5,96,29.65,5.0,ESE,5.8,-,N/A,,Clear,120,2012-12-25 09:15:00
3:35 AM,64.6,63.1,95,29.64,7.0,ESE,5.8,-,N/A,,Clear,120,2012-12-25 09:35:00
3:55 AM,65.3,63.7,94,29.64,7.0,SE,5.8,-,N/A,,Clear,140,2012-12-25 09:55:00
4:15 AM,65.3,63.5,94,29.64,7.0,SE,4.6,-,N/A,,Clear,130,2012-12-25 10:15:00
4:35 AM,65.5,63.5,93,29.65,7.0,SSE,4.6,-,N/A,,Clear,150,2012-12-25 10:35:00
4:55 AM,63.9,62.2,94,29.63,7.0,South,5.8,-,N/A,,Clear,170,2012-12-25 10:55:00
5:15 AM,63.5,62.1,95,29.62,7.0,SSE,5.8,-,N/A,,Clear,150,2012-12-25 11:15:00
5:35 AM,63.3,61.9,95,29.61,7.0,SSE,5.8,-,N/A,,Clear,160,2012-12-25 11:35:00
6:15 AM,64.9,62.2,91,29.60,10.0,SSE,5.8,-,N/A,,Clear,160,2012-12-25 12:15:00
6:35 AM,65.7,62.6,90,29.63,10.0,West,3.5,-,N/A,,Clear,260,2012-12-25 12:35:00
6:55 AM,64.9,62.1,90,29.63,10.0,Calm,Calm,-,N/A,,Clear,0,2012-12-25 12:55:00
7:15 AM,64.4,62.1,92,29.65,10.0,Calm,Calm,-,N/A,,Clear,0,2012-12-25 13:15:00
7:35 AM,63.9,61.7,93,29.65,7.0,South,4.6,-,N/A,,Clear,190,2012-12-25 13:35:00
7:55 AM,63.5,61.7,94,29.65,7.0,South,5.8,-,N/A,,Clear,180,2012-12-25 13:55:00
8:15 AM,63.0,61.3,94,29.66,5.0,SSW,4.6,-,N/A,,Clear,200,2012-12-25 14:15:00
8:35 AM,63.7,62.1,94,29.67,5.0,Calm,Calm,-,N/A,,Clear,0,2012-12-25 14:35:00
8:55 AM,65.3,63.0,92,29.67,7.0,SSW,5.8,-,N/A,,Clear,210,2012-12-25 14:55:00
9:15 AM,66.9,63.5,89,29.68,7.0,SW,8.1,-,N/A,,Clear,220,2012-12-25 15:15:00
9:35 AM,68.5,63.9,85,29.71,10.0,SW,9.2,-,N/A,,Clear,220,2012-12-25 15:35:00
9:55 AM,70.2,63.7,80,29.71,10.0,SSW,9.2,-,N/A,,Clear,200,2012-12-25 15:55:00
10:15 AM,71.6,63.9,76,29.72,10.0,SW,10.4,-,N/A,,Clear,230,2012-12-25 16:15:00
10:35 AM,73.6,63.5,71,29.72,10.0,SW,9.2,-,N/A,,Clear,220,2012-12-25 16:35:00
10:55 AM,76.3,60.4,58,29.76,10.0,WNW,12.7,23.0,N/A,,Clear,290,2012-12-25 16:55:00
11:15 AM,77.5,56.3,48,29.75,10.0,NW,15.0,26.5,N/A,,Clear,320,2012-12-25 17:15:00
11:35 AM,77.2,49.8,38,29.76,10.0,NNW,17.3,27.6,N/A,,Clear,340,2012-12-25 17:35:00
11:55 AM,76.8,41.9,29,29.76,10.0,NNW,17.3,29.9,N/A,,Clear,330,2012-12-25 17:55:00
12:15 PM,77.5,38.8,25,29.76,10.0,NNW,19.6,29.9,N/A,,Clear,340,2012-12-25 18:15:00
12:35 PM,77.0,40.3,27,29.76,10.0,NNW,17.3,29.9,N/A,,Clear,330,2012-12-25 18:35:00
12:55 PM,77.9,40.1,26,29.75,10.0,NNW,25.3,29.9,N/A,,Clear,330,2012-12-25 18:55:00
1:15 PM,79.0,33.3,19,29.74,10.0,NNW,16.1,29.9,N/A,,Clear,330,2012-12-25 19:15:00
1:55 PM,79.7,29.1,16,29.74,10.0,NNW,18.4,29.9,N/A,,Clear,340,2012-12-25 19:55:00
2:15 PM,80.1,27.1,14,29.73,10.0,NW,21.9,26.5,N/A,,Clear,320,2012-12-25 20:15:00
2:35 PM,80.2,27.0,14,29.73,10.0,NNW,19.6,27.6,N/A,,Clear,330,2012-12-25 20:35:00
2:55 PM,80.2,26.2,14,29.74,10.0,NNW,19.6,27.6,N/A,,Scattered Clouds,330,2012-12-25 20:55:00
3:15 PM,79.9,25.5,14,29.75,10.0,NNW,19.6,27.6,N/A,,Scattered Clouds,330,2012-12-25 21:15:00
3:35 PM,79.3,25.3,14,29.75,10.0,NW,15.0,28.8,N/A,,Clear,320,2012-12-25 21:35:00
3:55 PM,79.0,24.8,14,29.76,10.0,NW,12.7,27.6,N/A,,Clear,320,2012-12-25 21:55:00
4:15 PM,78.4,24.4,14,29.76,10.0,NW,20.7,31.1,N/A,,Clear,320,2012-12-25 22:15:00
4:35 PM,77.9,24.4,14,29.77,10.0,NNW,15.0,28.8,N/A,,Clear,330,2012-12-25 22:35:00
5:15 PM,76.6,24.1,14,29.79,10.0,NNW,17.3,25.3,N/A,,Clear,330,2012-12-25 23:15:00
5:35 PM,76.1,23.9,14,29.80,10.0,NNW,16.1,26.5,N/A,,Clear,340,2012-12-25 23:35:00
5:55 PM,74.8,23.2,15,29.81,10.0,NNW,15.0,25.3,N/A,,Clear,330,2012-12-25 23:55:00
6:15 PM,73.8,23.4,15,29.83,10.0,North,15.0,20.7,N/A,,Clear,350,2012-12-26 00:15:00
6:35 PM,73.2,23.5,16,29.85,10.0,NNW,9.2,17.3,N/A,,Clear,330,2012-12-26 00:35:00
6:55 PM,71.8,24.1,17,29.86,10.0,North,24.2,32.2,N/A,,Clear,350,2012-12-26 00:55:00
7:15 PM,70.7,24.6,18,29.88,10.0,NNW,18.4,27.6,N/A,,Clear,340,2012-12-26 01:15:00
7:35 PM,69.6,23.5,18,29.90,10.0,NNW,12.7,31.1,N/A,,Clear,330,2012-12-26 01:35:00
7:55 PM,68.0,24.3,19,29.92,10.0,NNW,10.4,17.3,N/A,,Clear,330,2012-12-26 01:55:00
8:15 PM,67.1,25.3,21,29.94,10.0,North,12.7,23.0,N/A,,Clear,350,2012-12-26 02:15:00
8:35 PM,65.7,25.7,22,29.96,10.0,NNW,15.0,21.9,N/A,,Clear,330,2012-12-26 02:35:00
9:15 PM,62.8,26.8,26,30.01,10.0,North,18.4,27.6,N/A,,Clear,350,2012-12-26 03:15:00
9:35 PM,61.0,27.5,28,30.03,10.0,North,16.1,31.1,N/A,,Clear,360,2012-12-26 03:35:00
9:55 PM,58.8,27.5,30,30.05,10.0,North,15.0,20.7,N/A,,Clear,350,2012-12-26 03:55:00
10:35 PM,54.3,27.9,36,30.10,10.0,North,11.5,18.4,N/A,,Clear,360,2012-12-26 04:35:00
11:15 PM,52.2,27.9,39,30.12,10.0,NNW,9.2,-,N/A,,Clear,340,2012-12-26 05:15:00
11:35 PM,51.4,27.7,40,30.13,10.0,NNW,9.2,-,N/A,,Clear,340,2012-12-26 05:35:00
11:55 PM,51.4,26.8,38,30.14,10.0,NNW,11.5,-,N/A,,Clear,330,2012-12-26 05:55:00